Location: Arboyeti
(42.1122°N, 44.6017°E)
Time: 05:44:03
(UTC+00:00)

Cosmos 2237 Rocket - Pass Details

Date: 19 April 2021
Orbit: 836 x 849 km, 71.0° (Epoch: 09 May)

Event Time Altitude Azimuth Distance (km) Brightness Sun altitude
Rises 19:24:17 0° 320° (NW) 3,397 6.4 -32.0°
Reaches altitude 10° 19:27:26 10° 303° (WNW) 2,456 5.3 -32.3°
Maximum altitude 19:31:10 18° 261° (W) 1,924 4.2 -32.6°
Enters shadow 19:31:16 18° 259° (W) 1,924 4.2 -32.6°
